Flag for U.S.A. Weather past 2 weeks in Gloucester, Massachusetts, U.S.A.

Now
65 °F

Clear.


Feels Like: 65 °F
Forecast: 62 / 74 °F
Wind: 3 mph from Northwest

Location: Beverly Municipal Airport

Current Time: Aug 27, 2015 at 10:30:48 PM

Latest Report: Aug 27, 2015 at 9:53 PM


Visibility: 10 mi

Pressure: 30.03 "Hg

Humidity: 70%

Dew point: 55 °F

Location of GloucesterLocation

Historic Weather in Gloucester — Graph

°F

Gloucester temperature yesterday

Maximum temperature yesterday: 83 °F (at 12:53 PM)
Minimum temperature yesterday: 67 °F (at 11:53 PM)
Average temperature yesterday: 75 °F

Past Weeks' High & Low Weather Summary

 TemperatureHumidityPressure
High90 °F (Aug 17, 12:53 PM)97% (Aug 20, 4:59 AM)30.12 "Hg (Aug 20, 4:59 AM)
Low57 °F (Aug 14, 5:53 AM)41% (Aug 14, 10:53 AM)29.81 "Hg (Aug 12, 8:53 PM)
Average73 °F77%29.99 "Hg
* Reported Aug 12 8:53 PM — Aug 27 8:53 PM, Gloucester, Weather by CustomWeather, © 2015

Note: Actual official high and low records may vary slightly from our data, if they occured in-between our weather recording intervals... More about our weather records

Advertising

Gloucester weather history for previous 24 hours

 ConditionsComfort  
Time TempWeatherWind HumidityBarometerVisibility
8:53 PM
Thu, Aug 27
66 °FClear.5 mph68%30.01 "Hg10 mi
7:53 PM71 °FScattered clouds.7 mph55%29.99 "Hg10 mi
6:53 PM73 °FScattered clouds.No wind55%29.96 "Hg10 mi
5:53 PM77 °FScattered clouds.6 mph47%29.95 "Hg10 mi
4:53 PM76 °FPartly sunny.3 mph52%29.94 "Hg10 mi
3:53 PM76 °FMostly cloudy.12 mph47%29.93 "Hg10 mi
2:53 PM80 °FScattered clouds.9 mph44%29.93 "Hg10 mi
1:53 PM80 °FScattered clouds.8 mph44%29.94 "Hg10 mi
12:53 PM78 °FSunny.12 mph43%29.95 "Hg10 mi
11:53 AM76 °FSunny.5 mph47%29.96 "Hg10 mi
10:53 AM75 °FSunny.9 mph52%29.97 "Hg10 mi
9:53 AM73 °FSunny.9 mph55%29.97 "Hg10 mi
8:53 AM70 °FSunny.10 mph61%29.96 "Hg10 mi
7:53 AM66 °FSunny.10 mph68%29.96 "Hg10 mi
6:53 AM62 °FClear.3 mph80%29.94 "Hg10 mi
5:53 AM58 °FClear.No wind90%29.93 "Hg10 mi
4:53 AM60 °FClear.3 mph83%29.91 "Hg10 mi
3:53 AM62 °FClear.5 mph78%29.91 "Hg10 mi
2:53 AM63 °FPassing clouds.7 mph78%29.91 "Hg10 mi
1:53 AM65 °FPassing clouds.7 mph73%29.91 "Hg10 mi
12:53 AM66 °FPassing clouds.5 mph73%29.92 "Hg10 mi
11:53 PM
Wed, Aug 26
67 °FPassing clouds.5 mph71%29.92 "Hg10 mi
10:53 PM69 °FPassing clouds.5 mph68%29.91 "Hg10 mi
Weather by CustomWeather, © 2015

See weather overviewHow to use our weather pages